Tracking 32420 objects as of 8-Dec-2025
HD Live streaming from Space Station
objects crossing your sky now

STARLINK-5865

Track STARLINK-5865 now!
10-day predictions
STARLINK-5865 is classified as:


NORAD ID: 57053
Int'l Code: 2023-088F
Perigee: 565.8 km
Apogee: 566.7 km
Inclination: 43.0 °
Period: 95.8 minutes
Semi major axis: 6937 km
RCS: Unknown
Launch date: June 22, 2023
Source: United States (US)
Launch site: AIR FORCE WESTERN TEST RANGE (AFWTR)
Your satellite tracking list
Your tracking list is empty




NASA's NSSDC Master Catalog

Two Line Element Set (TLE):
1 57053U 23088F   25341.44882768 -.00002669  00000-0 -18260-3 0  9998
2 57053  43.0036 248.7427 0000623 335.3338  24.7474 15.02527466136490
Source of the keplerian elements: AFSPC